TimeEDT,TemperatureF,Dew PointF,Humidity,Sea Level PressureIn,VisibilityMPH,Wind Direction,Wind SpeedMPH,Gust SpeedMPH,PrecipitationIn,Events,Conditions,WindDirDegrees,DateUTC
12:58 AM,63.3,57.9,83,29.83,10.0,SE,4.6,-,N/A,,Mostly Cloudy,130,2013-06-13 04:58:00
1:58 AM,63.1,57.6,82,29.82,10.0,South,6.9,-,N/A,,Partly Cloudy,170,2013-06-13 05:58:00
2:58 AM,63.5,57.9,82,29.81,10.0,South,5.8,-,N/A,,Mostly Cloudy,180,2013-06-13 06:58:00
3:58 AM,64.2,57.9,80,29.79,10.0,SE,4.6,-,N/A,,Scattered Clouds,130,2013-06-13 07:58:00
4:58 AM,64.4,56.7,76,29.77,10.0,SSE,5.8,-,N/A,,Mostly Cloudy,150,2013-06-13 08:58:00
5:58 AM,65.1,55.8,72,29.76,10.0,ESE,5.8,-,N/A,,Scattered Clouds,120,2013-06-13 09:58:00
6:56 AM,66.2,55.4,68,29.72,10.0,ESE,8.1,-,N/A,Rain,Light Rain,110,2013-06-13 10:56:00
6:57 AM,66.2,55.4,68,29.72,10.0,ESE,9.2,-,N/A,,Partly Cloudy,110,2013-06-13 10:57:00
6:58 AM,66.2,55.4,68,29.73,10.0,ESE,8.1,-,N/A,,Partly Cloudy,110,2013-06-13 10:58:00
7:07 AM,66.2,55.4,68,29.72,10.0,SE,6.9,-,N/A,Rain,Light Rain,130,2013-06-13 11:07:00
7:16 AM,66.2,55.4,68,29.72,10.0,SE,9.2,-,N/A,,Scattered Clouds,140,2013-06-13 11:16:00
7:58 AM,67.8,56.3,67,29.71,10.0,SE,11.5,-,0.00,,Clear,130,2013-06-13 11:58:00
8:58 AM,69.4,56.1,62,29.70,10.0,SE,8.1,-,N/A,,Scattered Clouds,140,2013-06-13 12:58:00
9:58 AM,68.2,57.9,70,29.64,10.0,SE,15.0,-,N/A,Rain-Thunderstorm,Light Thunderstorms and Rain,130,2013-06-13 13:58:00
10:05 AM,68.0,59.0,73,29.62,10.0,SE,15.0,20.7,N/A,Rain-Thunderstorm,Light Thunderstorms and Rain,130,2013-06-13 14:05:00
10:19 AM,66.2,60.8,83,29.67,2.5,Variable,2.3,-,N/A,Rain-Thunderstorm,Heavy Thunderstorms and Rain,0,2013-06-13 14:19:00
10:21 AM,66.2,60.8,83,29.68,1.5,West,6.9,-,N/A,Rain-Thunderstorm,Heavy Thunderstorms and Rain,270,2013-06-13 14:21:00
10:23 AM,66.2,60.8,83,29.70,1.2,West,13.8,-,N/A,Rain-Thunderstorm,Heavy Thunderstorms and Rain,270,2013-06-13 14:23:00
10:25 AM,66.2,60.8,83,29.72,1.0,West,18.4,24.2,N/A,Rain-Thunderstorm,Heavy Thunderstorms and Rain,260,2013-06-13 14:25:00
10:26 AM,66.2,60.8,83,29.73,1.0,WSW,18.4,24.2,N/A,Rain-Thunderstorm,Heavy Thunderstorms and Rain,240,2013-06-13 14:26:00
10:27 AM,64.4,60.8,88,29.73,0.8,SW,18.4,24.2,N/A,Rain-Thunderstorm,Heavy Thunderstorms and Rain,230,2013-06-13 14:27:00
10:28 AM,64.4,62.6,94,29.73,0.5,SSW,17.3,24.2,N/A,Fog-Rain-Thunderstorm,Heavy Thunderstorms and Rain,210,2013-06-13 14:28:00
10:29 AM,64.4,62.6,94,29.71,0.2,South,13.8,24.2,N/A,Fog-Rain-Thunderstorm,Heavy Thunderstorms and Rain,180,2013-06-13 14:29:00
10:30 AM,64.4,62.6,94,29.71,0.2,South,15.0,24.2,N/A,Fog-Rain-Thunderstorm,Heavy Thunderstorms and Rain,170,2013-06-13 14:30:00
10:31 AM,64.4,62.6,94,29.69,0.2,SE,16.1,24.2,N/A,Fog-Rain-Thunderstorm,Heavy Thunderstorms and Rain,140,2013-06-13 14:31:00
10:32 AM,64.4,62.6,94,29.65,0.2,ESE,18.4,24.2,N/A,Fog-Rain-Thunderstorm,Heavy Thunderstorms and Rain,120,2013-06-13 14:32:00
10:33 AM,64.4,62.6,94,29.63,0.2,ESE,16.1,24.2,N/A,Fog-Rain-Thunderstorm,Heavy Thunderstorms and Rain,110,2013-06-13 14:33:00
10:36 AM,64.4,62.6,94,29.63,0.2,SSE,12.7,24.2,N/A,Fog-Rain-Thunderstorm,Heavy Thunderstorms and Rain,150,2013-06-13 14:36:00
10:37 AM,64.4,62.6,94,29.63,0.2,SE,16.1,-,N/A,Fog-Rain-Thunderstorm,Light Thunderstorms and Rain,140,2013-06-13 14:37:00
10:38 AM,64.4,62.6,94,29.63,0.2,SE,17.3,-,N/A,Fog-Rain-Thunderstorm,Light Thunderstorms and Rain,130,2013-06-13 14:38:00
10:39 AM,64.4,62.6,94,29.62,0.2,ESE,16.1,-,N/A,Fog-Rain-Thunderstorm,Light Thunderstorms and Rain,120,2013-06-13 14:39:00
10:40 AM,64.4,62.6,94,29.63,0.5,SE,12.7,-,N/A,Fog-Rain-Thunderstorm,Light Thunderstorms and Rain,130,2013-06-13 14:40:00
10:41 AM,64.4,62.6,94,29.63,0.8,SE,10.4,-,N/A,Rain-Thunderstorm,Light Thunderstorms and Rain,140,2013-06-13 14:41:00
10:42 AM,64.4,62.6,94,29.64,1.0,SE,11.5,-,N/A,Rain-Thunderstorm,Light Thunderstorms and Rain,140,2013-06-13 14:42:00
10:43 AM,64.4,62.6,94,29.64,1.5,SE,11.5,-,N/A,Rain-Thunderstorm,Thunderstorms and Rain,130,2013-06-13 14:43:00
10:44 AM,64.4,62.6,94,29.64,2.5,SE,10.4,-,N/A,Rain-Thunderstorm,Light Thunderstorms and Rain,130,2013-06-13 14:44:00
10:45 AM,64.4,62.6,94,29.64,3.0,SE,9.2,-,N/A,Rain-Thunderstorm,Light Thunderstorms and Rain,140,2013-06-13 14:45:00
10:58 AM,64.0,63.1,97,29.66,5.0,SE,10.4,-,0.80,Rain-Thunderstorm,Thunderstorms and Rain,140,2013-06-13 14:58:00
11:26 AM,64.4,64.4,100,29.58,10.0,SSE,12.7,-,N/A,Rain,Light Rain,150,2013-06-13 15:26:00
11:38 AM,64.4,64.4,100,29.60,10.0,South,10.4,-,N/A,Rain,Light Rain,180,2013-06-13 15:38:00
11:39 AM,66.2,64.4,94,29.59,10.0,South,9.2,-,N/A,,Scattered Clouds,180,2013-06-13 15:39:00
11:43 AM,66.2,66.2,100,29.58,10.0,SSE,6.9,-,N/A,,Mostly Cloudy,160,2013-06-13 15:43:00
11:46 AM,66.2,64.4,94,29.57,10.0,SSE,8.1,-,N/A,,Mostly Cloudy,150,2013-06-13 15:46:00
11:51 AM,66.2,66.2,100,29.56,10.0,SE,6.9,-,N/A,,Mostly Cloudy,140,2013-06-13 15:51:00
11:58 AM,66.4,65.7,98,29.57,10.0,SSE,8.1,-,0.06,,Mostly Cloudy,160,2013-06-13 15:58:00
12:43 PM,71.6,68.0,88,29.56,10.0,South,10.4,-,N/A,,Overcast,170,2013-06-13 16:43:00
12:53 PM,71.6,68.0,88,29.55,10.0,SE,10.4,-,N/A,,Overcast,140,2013-06-13 16:53:00
12:59 PM,71.4,67.6,88,29.56,10.0,SE,12.7,16.1,N/A,,Overcast,140,2013-06-13 16:59:00
1:06 PM,71.6,68.0,88,29.55,10.0,SSE,10.4,-,N/A,,Overcast,160,2013-06-13 17:06:00
1:10 PM,71.6,66.2,83,29.55,10.0,SSE,12.7,-,N/A,,Overcast,150,2013-06-13 17:10:00
1:19 PM,73.4,68.0,83,29.54,10.0,SSE,9.2,-,N/A,,Mostly Cloudy,160,2013-06-13 17:19:00
1:20 PM,73.4,68.0,83,29.55,10.0,SSE,8.1,-,N/A,,Mostly Cloudy,160,2013-06-13 17:20:00
1:21 PM,73.4,68.0,83,29.55,10.0,SSE,6.9,-,N/A,,Mostly Cloudy,160,2013-06-13 17:21:00
1:22 PM,73.4,68.0,83,29.54,10.0,SSE,6.9,-,N/A,,Mostly Cloudy,150,2013-06-13 17:22:00
1:33 PM,73.4,66.2,78,29.54,10.0,South,13.8,-,N/A,,Overcast,170,2013-06-13 17:33:00
1:40 PM,73.4,68.0,83,29.53,10.0,South,10.4,-,N/A,,Overcast,170,2013-06-13 17:40:00
1:51 PM,73.4,66.2,78,29.52,10.0,South,6.9,-,N/A,,Overcast,170,2013-06-13 17:51:00
1:54 PM,73.4,68.0,83,29.52,10.0,SSE,8.1,-,N/A,Rain,Light Rain,160,2013-06-13 17:54:00
1:58 PM,74.1,67.3,79,29.52,10.0,SSE,6.9,-,0.00,Rain,Light Rain,150,2013-06-13 17:58:00
2:00 PM,75.2,68.0,78,29.51,10.0,SE,6.9,-,N/A,Rain,Light Rain,130,2013-06-13 18:00:00
2:29 PM,75.2,68.0,78,29.50,10.0,ESE,5.8,-,N/A,,Scattered Clouds,120,2013-06-13 18:29:00
2:32 PM,75.2,68.0,78,29.51,10.0,SE,8.1,-,N/A,,Mostly Cloudy,140,2013-06-13 18:32:00
2:58 PM,75.0,67.5,77,29.53,10.0,South,10.4,-,0.00,,Overcast,170,2013-06-13 18:58:00
3:03 PM,75.2,68.0,78,29.52,10.0,SSE,8.1,-,N/A,,Overcast,150,2013-06-13 19:03:00
3:13 PM,75.2,68.0,78,29.51,10.0,SE,6.9,-,N/A,,Mostly Cloudy,140,2013-06-13 19:13:00
3:32 PM,75.2,68.0,78,29.49,10.0,SE,4.6,-,N/A,Rain,Light Rain,140,2013-06-13 19:32:00
3:33 PM,75.2,68.0,78,29.49,10.0,SE,4.6,-,N/A,,Scattered Clouds,140,2013-06-13 19:33:00
3:34 PM,75.2,68.0,78,29.49,10.0,Variable,4.6,-,N/A,,Light Drizzle,0,2013-06-13 19:34:00
3:58 PM,77.9,69.3,75,29.49,10.0,SE,6.9,-,0.00,Rain,Light Rain,140,2013-06-13 19:58:00
3:59 PM,78.8,69.8,74,29.48,10.0,SE,8.1,-,N/A,,Partly Cloudy,140,2013-06-13 19:59:00
4:21 PM,78.8,69.8,74,29.46,10.0,SE,5.8,-,N/A,Rain,Light Rain,130,2013-06-13 20:21:00
4:29 PM,78.8,69.8,74,29.46,10.0,Variable,5.8,-,N/A,,Clear,0,2013-06-13 20:29:00
4:30 PM,78.8,69.8,74,29.46,10.0,Variable,5.8,-,N/A,,Light Drizzle,0,2013-06-13 20:30:00
4:31 PM,78.8,69.8,74,29.46,10.0,SE,5.8,-,N/A,,Clear,130,2013-06-13 20:31:00
4:32 PM,78.8,69.8,74,29.46,10.0,SE,6.9,-,N/A,Rain,Light Rain,130,2013-06-13 20:32:00
4:44 PM,78.8,69.8,74,29.45,10.0,SE,6.9,-,N/A,,Partly Cloudy,140,2013-06-13 20:44:00
4:58 PM,78.1,69.6,75,29.45,10.0,SSE,5.8,-,0.00,,Scattered Clouds,150,2013-06-13 20:58:00
5:34 PM,78.8,71.6,78,29.41,10.0,SE,6.9,-,N/A,Rain,Light Rain,130,2013-06-13 21:34:00
5:50 PM,77.0,69.8,78,29.41,10.0,SE,5.8,-,N/A,,Clear,130,2013-06-13 21:50:00
5:58 PM,77.7,70.5,78,29.42,10.0,SE,5.8,-,0.00,,Clear,130,2013-06-13 21:58:00
6:48 PM,77.0,71.6,83,29.40,10.0,SSE,9.2,-,N/A,Rain,Light Rain,150,2013-06-13 22:48:00
6:53 PM,75.2,71.6,89,29.40,10.0,SSE,8.1,-,N/A,Rain,Light Rain,150,2013-06-13 22:53:00
6:58 PM,75.6,71.2,86,29.42,10.0,SSE,10.4,-,0.00,Rain,Light Rain,160,2013-06-13 22:58:00
7:05 PM,75.2,71.6,89,29.40,9.0,SSE,15.0,19.6,N/A,Rain,Light Rain,160,2013-06-13 23:05:00
7:06 PM,75.2,71.6,89,29.40,9.0,SSE,16.1,19.6,N/A,Rain,Light Rain,160,2013-06-13 23:06:00
7:07 PM,75.2,71.6,89,29.40,8.0,SSE,16.1,21.9,N/A,Rain,Light Rain,160,2013-06-13 23:07:00
7:20 PM,73.4,71.6,94,29.39,8.0,South,15.0,-,N/A,Rain,Light Rain,170,2013-06-13 23:20:00
7:39 PM,71.6,69.8,94,29.39,10.0,South,8.1,-,N/A,Rain,Light Rain,180,2013-06-13 23:39:00
7:47 PM,71.6,71.6,100,29.39,10.0,South,9.2,-,N/A,,Scattered Clouds,190,2013-06-13 23:47:00
7:52 PM,71.6,69.8,94,29.40,10.0,South,9.2,-,N/A,,Partly Cloudy,190,2013-06-13 23:52:00
7:58 PM,71.2,70.7,98,29.41,10.0,South,9.2,-,0.06,,Clear,190,2013-06-13 23:58:00
8:17 PM,71.6,69.8,94,29.40,10.0,SW,5.8,-,N/A,,Mostly Cloudy,230,2013-06-14 00:17:00
8:26 PM,71.6,69.8,94,29.41,10.0,West,5.8,-,N/A,,Mostly Cloudy,260,2013-06-14 00:26:00
8:48 PM,68.0,68.0,100,29.41,10.0,North,11.5,-,N/A,,Overcast,10,2013-06-14 00:48:00
8:57 PM,68.0,68.0,100,29.41,10.0,NNE,8.1,-,N/A,,Overcast,30,2013-06-14 00:57:00
8:58 PM,68.0,68.0,100,29.42,10.0,NE,9.2,-,N/A,,Overcast,40,2013-06-14 00:58:00
9:04 PM,68.0,66.2,94,29.41,10.0,NNE,10.4,-,N/A,,Overcast,20,2013-06-14 01:04:00
9:06 PM,68.0,66.2,94,29.41,10.0,North,10.4,-,N/A,,Overcast,10,2013-06-14 01:06:00
9:10 PM,68.0,66.2,94,29.41,10.0,North,9.2,-,N/A,,Overcast,360,2013-06-14 01:10:00
9:13 PM,66.2,66.2,100,29.42,10.0,North,10.4,-,N/A,,Overcast,10,2013-06-14 01:13:00
9:22 PM,66.2,64.4,94,29.43,10.0,North,11.5,-,N/A,Rain,Light Rain,360,2013-06-14 01:22:00
9:27 PM,66.2,64.4,94,29.42,9.0,NE,11.5,-,N/A,Rain,Light Rain,50,2013-06-14 01:27:00
9:32 PM,64.4,64.4,100,29.42,6.0,NE,10.4,-,N/A,Rain,Light Rain,40,2013-06-14 01:32:00
9:48 PM,64.4,64.4,100,29.43,7.0,North,10.4,-,N/A,Rain,Light Rain,10,2013-06-14 01:48:00
9:49 PM,64.4,64.4,100,29.43,7.0,North,10.4,-,N/A,Rain,Light Rain,350,2013-06-14 01:49:00
9:50 PM,64.4,64.4,100,29.43,10.0,North,11.5,-,N/A,Rain,Light Rain,350,2013-06-14 01:50:00
9:58 PM,64.6,64.0,98,29.45,10.0,NNW,16.1,-,0.02,Rain,Light Rain,330,2013-06-14 01:58:00
10:16 PM,64.4,62.6,94,29.44,10.0,North,11.5,-,N/A,Rain,Light Rain,10,2013-06-14 02:16:00
10:22 PM,64.4,62.6,94,29.44,10.0,North,10.4,-,N/A,Rain,Light Rain,10,2013-06-14 02:22:00
10:38 PM,64.4,62.6,94,29.44,10.0,North,9.2,-,N/A,Rain,Light Rain,360,2013-06-14 02:38:00
10:58 PM,63.1,62.1,96,29.46,10.0,North,11.5,-,0.01,Rain,Rain,350,2013-06-14 02:58:00
11:26 PM,62.6,60.8,94,29.45,10.0,North,12.7,-,N/A,Rain,Light Rain,360,2013-06-14 03:26:00
11:32 PM,62.6,60.8,94,29.45,10.0,North,13.8,-,N/A,,Overcast,360,2013-06-14 03:32:00
11:58 PM,60.8,59.2,94,29.48,10.0,North,13.8,-,0.01,,Overcast,10,2013-06-14 03:58:00
11:59 PM,60.8,59.0,94,29.47,10.0,North,13.8,-,N/A,,Overcast,10,2013-06-14 03:59:00